Find Starlink 35980

NORAD ID: 66600 Int'l Des: 2025-270 Owner: SPXS Country: US Constellation: starlink operational
LEOCIRCULAR

リアルタイム位置

3D地球を読み込み中...

Starlink 35980について

説明を読み込み中...

次回通過

Passes for default location (London). Set your location on the main map for personalized predictions.

高度履歴

Loading altitude history...

軌道要素

1 66600U 25270N 26106.94858135 .00011123 00000-0 41302-3 0 9993
2 66600 43.0003 200.4084 0001748 270.9684 89.0968 15.27586487 23451
Epoch: Apr 16, 2026 • Age: 7 hours

現在のステータス

高度 486.9 km
速度 7.63 km/s
衛星直下点 41.08°N, 22.49°E
打ち上げ日 Nov 22, 2025
運用期間 0.3 years
タイプ internet

技術仕様

分類 Payload
質量 575.00 kg
乾燥質量 530.00 kg
総質量 575.00 kg
長さ 0.30 m
直径 4.10 m
スパン 29.00 m
形状 Box + pan
製造者 SPXS
バスタイプ Starlink V2MO
フェーズステータス In Orbit
所有者/国 SPXS/US

Most Searched